Regional Weather Roundup
Issued by NWS

Home | Current Version | Previous Version | Text Only | Print | Product List | Glossary On
Versions: 1 2 3 4 5 6 7 8 9 10 11 12 13 14 15 16 17 18 19 20 21 22 23 24 25 26 27 28 29 30 31 32 33 34 35 36 37 38 39 40 41 42 43 44 45 46 47 48 49 50
000
ASUS42 KTBW 110916
RWRFL
FLORIDA REGIONAL WEATHER ROUNDUP
NATIONAL WEATHER SERVICE TAMPA BAY RUSKIN FL
400 AM EST THU FEB 11 2016

NOTE: "FAIR" INDICATES FEW OR NO CLOUDS BELOW 12,000 FEET WITH NO
SIGNIFICANT WEATHER AND/OR OBSTRUCTIONS TO VISIBILITY.


FLZ001>010-012>015-112-114-115-111000-
PANHANDLE FLORIDA

CITY           SKY/WX    TMP DP  RH WIND       PRES   REMARKS
PENSACOLA      CLEAR     45  37  73 N3        30.22R
PENSACOLA NAS  CLEAR     40  37  89 NW3       30.21S
MILTON NAS     CLEAR     31  30  96 CALM      30.22
CRESTVIEW      PTCLDY    29  26  89 CALM      30.24S
DUKE FIELD     FAIR      31  27  83 CALM      30.21S
VALPARAISO     CLEAR     33  29  85 N5        30.21S WCI  29
MARY ESTHER    CLEAR     35  32  89 N6        30.21S WCI  29
TRI COUNTY     FAIR      31  29  92 CALM      30.24S
PANAMA CITY    FAIR      34  30  85 CALM      30.22S
TYNDALL AFB    CLEAR     44  40  87 NE5       30.23R WCI  42
APALACHICOLA   CLEAR     35  33  92 CALM      30.24R

STATION/POSITION SKY/WX   TEMP    WIND        PRES    WAVE   SWELL
                          AIR SEA DIR/SP/G            HT/PER HT/PER
                          (F)     (DEG/KT/KT) (MB)    (FT/S) (FT/S)
30.1N   87.6W              59 64  250/ 19/ 23 1022.3F   5/ 5
28.8N   86.0W              60 68  250/ 14/ 17 1023.9S   3/ 5   2/ 8
PANAMA CITY BEAC           57 56  270/ 14/ 17 1023.4R
CAPE SAN BLAS    NOT AVBL
TOWER C          NOT AVBL
28.5N   84.5W              60 66  290/ 10/ 12 1024.1R   4/ 7   3/ 7

$$
FLZ011-016>038-118-127-128-134-139-239-111000-
NORTH FLORIDA

CITY           SKY/WX    TMP DP  RH WIND       PRES   REMARKS
MARIANNA       PTCLDY    30  27  88 CALM      30.24R
TALLAHASSEE    CLEAR     30  24  78 CALM      30.24R
PERRY          CLEAR     31  27  84 CALM      30.26S
LIVE OAK         N/A     32  30  93 CALM      30.27S
CROSS CITY       N/A     28  24  85 CALM      30.26S
LAKE CITY      FAIR      32  27  80 CALM      30.25S
GAINESVILLE    CLEAR     30  26  85 CALM      30.27S
WILLISTON      FAIR      32  32 100 N3        30.29S
KEYSTONE HEIGH   N/A     32  28  86 CALM      30.27R
PALATKA        PTSUNNY   30  30 100 CALM      30.29R
MAYPORT NAS    CLEAR     41  21  44 W7        30.25S WCI  36
JACKSONVILLE   CLEAR     34  21  59 NW5       30.25S WCI  30
JAX NAS        CLEAR     37  22  54 SW6       30.27R WCI  32
JAX CRAIG      CLEAR     37  20  50 CALM      30.26R
JAX CECIL      CLEAR     28  23  80 CALM      30.26S
FERNANDINA BEA FAIR      39  19  45 NW6       30.24R WCI  35
ST AUGUSTINE   CLEAR     35  27  72 SW6       30.28R WCI  30
PALM COAST     FAIR      37  27  69 NW5       30.27S WCI  33

STATION/POSITION SKY/WX   TEMP    WIND        PRES    WAVE   SWELL
                          AIR SEA DIR/SP/G            HT/PER HT/PER
                          (F)     (DEG/KT/KT) (MB)    (FT/S) (FT/S)
SHELL POINT                38      10/  2/  3 1022.8
KEATON BEACH               38      60/  4/  4 1024.2R
CEDAR KEY                  44      30/  3/  4 1025.1R
FERNANDINA                 40 51  290/  6/ 10 1024.1F
30.7N   81.3W                 55                N/A     2/15   2/15
MAYPORT                    42 54  290/  7/  9 1023.9F
31.4N   80.9W              44 52  290/ 16/ 19 1024.0R   3/ 3
ST AUGUSTINE               36 54  240/  6/  6 1026.1R

$$
FLZ040-043>046-052-053-057-058-063-144-111000-
INTERIOR CENTRAL FLORIDA

CITY           SKY/WX    TMP DP  RH WIND       PRES   REMARKS
OCALA          CLEAR     30  25  80 S6        30.27R WCI  24
THE VILLAGES     N/A     34  32  93 CALM      30.17R
LEESBURG       CLEAR     37  32  82 NW5       30.27R WCI  33
SANFORD        PTCLDY    39  32  76 NW8       30.26R WCI  33
ORLANDO EXEC   PTCLDY    42  34  73 CALM      30.25R
ORLANDO INTL   CLEAR     39  33  79 W3        30.26R
WINTER HAVEN   CLEAR     41  37  86 S3        30.27R
LAKELAND       PTCLDY    36  34  93 CALM      30.26S
BARTOW         FAIR      36  36 100 CALM      30.26S
OKEECHOBEE     CLEAR     41  36  81 NW5       30.26S WCI  38

$$
FLZ041-047-054-059-064-141-147-111000-
EAST CENTRAL FLORIDA

CITY           SKY/WX    TMP DP  RH WIND       PRES   REMARKS
DAYTONA BEACH  CLEAR     39  29  67 W5        30.28R WCI  36
DELAND           N/A     37  30  75 CALM      30.29R
JFK SPACE CTR  CLEAR     38  32  79 NW5       30.25R WCI  34
CAPE CANAVERAL CLEAR     42  33  70 W5        30.24R WCI  39
PATRICK AFB    CLEAR     44  35  69 W7        30.25R WCI  40
MELBOURNE      CLEAR     38  34  85 W5        30.25S WCI  34
VERO BEACH     CLEAR     39  35  86 W6        30.26F WCI  35
FT PIERCE      CLEAR     38  36  92 W3        30.25S
STUART           N/A     45  34  65 NW6       30.27R WCI  41

STATION/POSITION SKY/WX   TEMP    WIND        PRES    WAVE   SWELL
                          AIR SEA DIR/SP/G            HT/PER HT/PER
                          (F)     (DEG/KT/KT) (MB)    (FT/S) (FT/S)
28.5N   80.2W              51 69  290/ 14/ 17 1023.7R
28.9N   78.5W              60 72              1022.0R
TRIDENT PIER               45 62  260/  5/  9 1023.7F
28.4N   80.5W                 63                N/A     1/14
27.5N   80.2W                 69                N/A     4/13   2/13

$$
FLZ050-056-061-142-242-148-248-149-249-151-251-155-255-
160-260-111000-
WEST CENTRAL FLORIDA

CITY           SKY/WX    TMP DP  RH WIND       PRES   REMARKS
CRYSTAL RIVER  FAIR      32  32 100 CALM      30.27R
INVERNESS      FAIR      32  32 100 CALM      30.27R
BROOKSVILLE    PTCLDY    33  31  92 CALM      30.27R
ZEPHYRHILLS    FAIR      32  31  96 CALM      30.27R
CLEARWATER AIR FAIR      43  41  93 CALM      30.25S
ST PETE CLEARW CLEAR     43  40  89 CALM      30.25F
TAMPA INTL     CLEAR     44  39  82 N3        30.26S
TAMPA EXEC     CLEAR     37  36  93 CALM      30.27R
PLANT CITY       N/A     37  37 100 CALM      30.27S
MACDILL AFB    CLEAR     40  39  95 N3        30.25S
PETER O KNIGHT CLEAR     46  45  93 CALM      30.26S
ST PETERSBURG  CLEAR     52  44  74 CALM      30.24S
SARASOTA       CLEAR     39  38  96 SE5       30.25S WCI  36
VENICE         FAIR      43  41  93 E3        30.27R

STATION/POSITION SKY/WX   TEMP    WIND        PRES    WAVE   SWELL
                          AIR SEA DIR/SP/G            HT/PER HT/PER
                          (F)     (DEG/KT/KT) (MB)    (FT/S) (FT/S)
CEDAR KEY                  44      30/  3/  4 1025.1R
28.5N   84.5W              60 66  290/ 10/ 12 1024.1R   4/ 7   3/ 7
27.3N   84.2W                 69                N/A     5/ 7
CLEARWATER BEACH           54 55  300/  8/ 12 1024.3F
MIDDLE TAMPA BAY           53     340/  6/  8 1024.8F
VENICE                     50 59   80/  5/  6 1024.3R

$$
FLZ066-069-070-075>078-162-262-165-265-111000-
SOUTHWEST FLORIDA AND KEYS

CITY           SKY/WX    TMP DP  RH WIND       PRES   REMARKS
PUNTA GORDA    CLEAR     40  40 100 CALM      30.28R
FT MYERS       CLEAR     44  41  89 CALM      30.24F
SOUTHWEST INTL CLEAR     45  42  89 CALM      30.25F
NAPLES         PTCLDY    46  44  93 CALM      30.24F
MARCO ISLAND   MOSUNNY   46  39  76 CALM      30.25S
MARATHON       CLEAR     55  47  74 N9        30.25S
KEY WEST NAS   PTCLDY    59  49  69 N12       30.25S
KEY WEST INTL  PTCLDY    59  50  72 N10       30.25S

STATION/POSITION SKY/WX   TEMP    WIND        PRES    WAVE   SWELL
                          AIR SEA DIR/SP/G            HT/PER HT/PER
                          (F)     (DEG/KT/KT) (MB)    (FT/S) (FT/S)
VENICE                     50 59   80/  5/  6 1024.3R
NAPLES                        63              1024.3F
26.0N   85.6W              63 79  340/  8/ 10 1024.8F   5/ 8   5/ 8
DRY TORTUGAS     NOT AVBL
SAND KEY                   60      20/ 12/ 15 1024.5F
LONG KEY                   55 63   10/ 11/ 14 1025.3R
MOLASSES REEF              55 72   20/ 10/ 11 1024.2S

$$
FLZ067-068-071>074-168-172>174-111000-
SOUTHEAST FLORIDA

CITY           SKY/WX    TMP DP  RH WIND       PRES   REMARKS
W PALM BEACH   PTCLDY    43  36  76 W5        30.26S WCI  40
FT LAUDER-EXEC MOCLDY    48  39  71 NW5       30.24S
FT LAUDERDALE  PTCLDY    49  40  71 NW6       30.24S
POMPANO BEACH  PTCLDY    48  42  80 NW7       30.24S WCI  45
PEMBROKE PINES CLOUDY    49  39  68 NW8       30.26S
OPA LOCKA      PTCLDY    50  41  71 NW9       30.25F
MIAMI          PTCLDY    50  40  68 NW5       30.25F
WEST KENDALL   PTCLDY    48  42  80 N6        30.25F
HOMESTEAD      PTCLDY    49  41  74 CALM      30.25R

STATION/POSITION SKY/WX   TEMP    WIND        PRES    WAVE   SWELL
                          AIR SEA DIR/SP/G            HT/PER HT/PER
                          (F)     (DEG/KT/KT) (MB)    (FT/S) (FT/S)
PORT EVERGLADES            51     310/ 10/ 14 1023.8F
VIRGINIA KEY               52 68  320/  6/ 15 1024.2F
LAKE WORTH                 48 73  300/  5/  8 1023.7F
SETTLEMENT POINT           59     340/ 14/ 16 1023.6S

$$




USA.gov is the U.S. government's official web portal to all federal, state and local government web resources and services.